Regional Weather Roundup
Issued by NWS Mt. Holly, NJ

Home | Current Version | Previous Version | Text Only | Print | Product List | Glossary On
Versions: 1 2 3 4 5 6 7 8 9 10 11 12 13 14 15 16 17 18 19 20 21 22 23 24 25 26 27
000
ASUS41 KPHI 081412
RWRPHI

REGIONAL WEATHER ROUNDUP
NATIONAL WEATHER SERVICE MOUNT HOLLY NJ
900 AM EST THU DEC 08 2016

NOTE:  "FAIR" INDICATES FEW OR NO CLOUDS BELOW 12,000 FEET WITH NO
SIGNIFICANT WEATHER AND/OR OBSTRUCTIONS TO VISIBILITY.

 * = STATION DOES NOT REPORT PRECIPITATION (E.G. RAIN, SNOW, ETC.)
        OR FOG.

NJZ015>026-081500-
SOUTHERN NEW JERSEY

CITY           SKY/WX    TMP DP  RH WIND       PRES   REMARKS
POMONA         CLOUDY    37  31  78 W3        30.02F
WILDWOOD*      CLOUDY    39  39 100 CALM      30.04S
MILLVILLE      CLOUDY    35  35 100 W3        30.04R FOG
WRIGHTSTOWN    CLOUDY    38  29  71 NW3       29.98S
MOUNT HOLLY    CLOUDY    36  31  82 SW3       30.01F
TRENTON        CLOUDY    34  30  85 SW6       29.99F WCI  29

$$
NJZ001>014-081500-
NORTHERN NEW JERSEY

CITY           SKY/WX    TMP DP  RH WIND       PRES   REMARKS
SUSSEX         CLOUDY    32  32 100 CALM      29.95S
ANDOVER*         N/A     34  28  79 S3        29.96S
MORRISTOWN     CLOUDY    36  30  80 S6        29.98S WCI  31
NEWARK         CLOUDY    39  29  67 SW10      29.99R WCI  32
TETERBORO      CLOUDY    43  31  62 VRB7      29.97F
CALDWELL       CLOUDY    37  29  72 SW5       29.98S WCI  33
SOMERVILLE     CLOUDY    33  31  92 CALM      29.97F
ALLAIRE*       PTSUNNY   37  33  85 SW7       30.00F WCI  32
TOMS RIVER*    CLOUDY    34  33  96 W5        30.01F WCI  30

$$
PAZ043-044-047-054-055-060>062-066>071-081500-
EASTERN PENNSYLVANIA

CITY           SKY/WX    TMP DP  RH WIND       PRES   REMARKS
PHILADELPHIA   CLOUDY    39  31  72 W7        30.03R WCI  34
NORTH PHILA    CLOUDY    38  31  76 W6        30.02F WCI  33
BLUE BELL*     CLOUDY    34  28  80 CALM      30.00S
DOYLESTOWN     CLOUDY    37  30  75 SW3       29.99S
QUAKERTOWN*    CLOUDY    32  30  93 CALM      30.00R
PERKASIE*      FAIR      36  23  60 W3        29.99S
POTTSTOWN      CLOUDY    34  29  82 CALM      30.02R
LANCASTER      CLOUDY    36  30  79 W3        30.01S
COATESVILLE    PTSUNNY   36  25  64 CALM      30.01S
READING        CLOUDY    35  28  75 CALM      30.00S
ALLENTOWN      CLOUDY    36  25  64 SW8       29.99S WCI  30
MOUNT POCONO   CLOUDY    30  20  66 W9        29.89R WCI  22
HAZLETON       CLOUDY    32  21  64 W5        29.95R WCI  27
LEHIGHTON        N/A     32  30  93 CALM      29.99S
WILKES BARRE   CLOUDY    35  23  61 W7        29.94R WCI  29

$$
DEZALL-MDZ008-012-015-019-020-081500-
DELAWARE AND EASTERN MARYLAND

CITY           SKY/WX    TMP DP  RH WIND       PRES   REMARKS
WILMINGTON     CLOUDY    38  31  76 SW5       30.04R WCI  34
DOVER          CLOUDY    38  38 100 W3        30.04R
GEORGETOWN     CLOUDY    38  36  92 CALM      30.05R FOG
EASTON         CLOUDY    39  36  87 NW5       30.10R
ABERDEEN       CLOUDY    37  33  86 CALM      30.06R
PATUXENT       LGT RAIN  43  40  89 NW6       30.06R
OCEAN CITY     CLOUDY    41  39  93 W3        30.04S
WALLOPS ISLAND CLOUDY    40  39  97 CALM      30.05R FOG
SALISBURY      CLOUDY    37  37 100 CALM      30.06R FOG

$$
PAZ001-021-NYZ056-072-MDZ011-DCZ001-081500-
OTHER NEARBY LOCATIONS

CITY           SKY/WX    TMP DP  RH WIND       PRES   REMARKS
HARRISBURG     CLOUDY    39  26  59 S6        30.01S WCI  35
STATE COLLEGE  MOSUNNY   30  21  69 W8        29.98R WCI  23
WILLIAMSPORT   MOSUNNY   32  24  72 W3        29.98R
BINGHAMTON     MOSUNNY   30  21  69 W15       29.87S WCI  19
NEW YORK CITY  NOT AVBL
BALTIMORE      CLOUDY    42  32  67 W5        30.04R
WASHINGTON DC  CLOUDY    45  33  63 CALM      30.06R

$$




USA.gov is the U.S. government's official web portal to all federal, state and local government web resources and services.